Tracking 19193 objects as of 24-Jun-2018
HD Live streaming from Space Station
objects crossing your sky now

FENGYUN 1C DEB

Track FENGYUN 1C DEB now!
10-day predictions


NORAD ID: 37042
Int'l Code: 1999-025EEA
Perigee: 703.8 km
Apogee: 854.2 km
Inclination: 98.7 °
Period: 100.3 minutes
Semi major axis: 7149 km
RCS: 0.0054 m2 (small)
Launch date: May 10, 1999
Source: People's Republic of China (PRC)
Launch site: Taiyaun Space Center, China (TSC)

Note: This is SATELLITE DEBRIS
aabbcc
Your satellite tracking list
Your tracking list is empty




NASA's NSSDC Master Catalog

Two Line Element Set (TLE):
1 37042U 99025EEA 18155.33307557  .00000573  00000-0  20076-3 0  9997
2 37042  98.7401 195.1308 0105176   3.0831 357.0980 14.35968069554051
Source of the keplerian elements: AFSPC